Flight Track Log - Related Links

Times and Time Zones

All times are in EDT time to prevent confusion due to time zone crossing. See the SWA2428 flight status page for this flight to view local times or setup timezone preferences in your user account.

Time Position Orientation Groundspeed Altitude Reporting Facility
EDT Latitude Longitude Course Direction KTS MPH feet Rate Location/Type
Sat 10:46:30 34.0575 -117.6278 269° West 160 184 40,000  Level Los Angeles Center
Sat 10:47:31 34.0564 -117.6983 269° West 207 238 5,600 -16,230 Descending Los Angeles Center
Sat 10:48:32 34.0733 -117.7806 284° West 240 276 7,000 2,098 Climbing Los Angeles Center
Sat 10:49:34 34.1239 -117.8489 312° West 265 305 9,900 3,097 Climbing Los Angeles Center
Sat 10:50:36 34.1767 -117.9306 308° West 303 349 13,400 3,805 Climbing Los Angeles Center
Sat 10:51:37 34.2392 -118.0222 310° West 349 402 17,700 3,689 Climbing Los Angeles Center
Sat 10:52:38 34.2900 -118.0975 309° West 360 414 20,900 3,659 Climbing Los Angeles Center
Sat 10:53:40 34.3847 -118.2378 309° West 388 447 25,200 3,387 Climbing Los Angeles Center
Sat 10:54:42 34.4564 -118.3450 309° West 408 470 27,900 2,516 Climbing Los Angeles Center
Sat 10:55:44 34.5319 -118.4547 310° West 423 487 30,400 2,222 Climbing Los Angeles Center
Sat 10:56:57 34.6078 -118.5686 309° West 435 501 32,900 2,204 Climbing Los Angeles Center
Sat 10:58:11 34.7181 -118.6778 321° Northwest 430 495 35,800 1,368 Climbing Los Angeles Center
Sat 10:59:13 34.8483 -118.7444 337° Northwest 422 486 36,000 532 Climbing Los Angeles Center
Sat 11:00:15 34.9744 -118.8092 337° Northwest 425 489 36,900 1,512 Climbing Los Angeles Center
Sat 11:01:16 35.0808 -118.8642 337° Northwest 417 480 39,100 1,512 Climbing Los Angeles Center
Sat 11:02:18 35.1878 -118.9178 338° Northwest 417 480 40,000 435 Climbing Los Angeles Center
Sat 11:03:20 35.2964 -118.9739 337° Northwest 421 484 40,000  Level Los Angeles Center
Sat 11:04:22 35.4056 -119.0294 337° Northwest 425 489 40,000  Level Los Angeles Center
Sat 11:05:23 35.5144 -119.0872 337° Northwest 427 491 40,000  Level Los Angeles Center
Sat 11:06:25 35.6444 -119.1553 337° Northwest 424 488 40,000  Level Los Angeles Center
Sat 11:06:43 35.6661 -119.1650 340° North 427 491 40,000  Level Oakland Center
Sat 11:07:44 35.7739 -119.2208 337° Northwest 424 488 40,000  Level Oakland Center
Sat 11:08:45 35.8814 -119.2781 337° Northwest 424 488 40,000  Level Oakland Center
Sat 11:09:46 36.0106 -119.3461 337° Northwest 423 487 40,000  Level Oakland Center
Sat 11:10:47 36.1181 -119.4036 337° Northwest 418 481 40,000  Level Oakland Center
Sat 11:11:48 36.2250 -119.4603 337° Northwest 420 483 40,000  Level Oakland Center
Sat 11:12:49 36.3322 -119.5172 337° Northwest 420 483 40,000  Level Oakland Center
Sat 11:13:50 36.4389 -119.5742 337° Northwest 420 483 40,000  Level Oakland Center
Sat 11:14:51 36.5464 -119.6317 337° Northwest 422 486 40,000  Level Oakland Center
Sat 11:15:52 36.6528 -119.6903 336° Northwest 418 481 40,000  Level Oakland Center
Sat 11:16:53 36.7611 -119.7483 337° Northwest 422 486 40,000 -393 Level Oakland Center
Sat 11:17:54 36.8661 -119.8064 336° Northwest 417 480 39,200 -1,623 Descending Oakland Center
Sat 11:18:55 36.9594 -119.8908 324° Northwest 411 473 36,700 -2,607 Descending Oakland Center
Sat 11:19:56 37.0494 -119.9794 322° Northwest 412 474 33,900 -2,557 Descending Oakland Center
Sat 11:20:57 37.1406 -120.0700 322° Northwest 401 461 31,500 -2,311 Descending Oakland Center
Sat 11:21:58 37.2253 -120.1544 322° Northwest 389 448 29,200 -2,164 Descending Oakland Center
Sat 11:22:59 37.3058 -120.2361 321° Northwest 374 430 27,100 -2,262 Descending Oakland Center
Sat 11:24:00 37.4019 -120.3256 324° Northwest 356 410 24,600 -1,820 Descending Oakland Center
Sat 11:25:01 37.4769 -120.3978 323° Northwest 344 396 23,400 -1,116 Descending Oakland Center
Sat 11:25:26 37.5000 -120.4333 309° West 340 391 23,000 -988 Descending Northern Cal TRACON
Sat 11:26:26 37.5833 -120.5000 328° Northwest 338 389 22,000 -1,000 Descending Northern Cal TRACON
Sat 11:27:26 37.6500 -120.5833 315° West 331 381 21,000 -1,000 Descending Northern Cal TRACON
Sat 11:28:26 37.7167 -120.6500 322° Northwest 327 376 20,000 -1,000 Descending Northern Cal TRACON
Sat 11:29:26 37.8000 -120.7167 328° Northwest 323 372 19,000 -1,000 Descending Northern Cal TRACON
Sat 11:30:26 37.8667 -120.7833 322° Northwest 317 365 18,000 -832 Descending Northern Cal TRACON
Sat 11:31:07 37.9058 -120.8292 317° Northwest 320 368 17,600 -824 Descending Oakland Center
Sat 11:32:08 37.9758 -120.9008 321° Northwest 323 372 16,600 -984 Descending Oakland Center
Sat 11:33:09 38.0442 -120.9711 321° Northwest 317 365 15,600 -984 Descending Oakland Center
Sat 11:34:10 38.1078 -121.0494 316° Northwest 318 366 14,600 -984 Descending Oakland Center
Sat 11:35:11 38.1644 -121.1342 310° West 314 361 13,600 -1,068 Descending Oakland Center
Sat 11:36:08 38.2333 -121.2333 312° West 310 357 12,500 -1,231 Descending Northern Cal TRACON
Sat 11:37:08 38.2833 -121.3000 314° West 294 338 11,200 -1,650 Descending Northern Cal TRACON
Sat 11:38:08 38.3333 -121.3833 307° West 292 336 9,200 -1,800 Descending Northern Cal TRACON
Sat 11:39:08 38.3833 -121.4667 307° West 287 330 7,600 -1,600 Descending Northern Cal TRACON
Sat 11:40:08 38.4333 -121.5333 314° West 278 320 6,000 -1,421 Descending Northern Cal TRACON
Sat 11:41:02 38.4833 -121.5833 322° Northwest 268 308 4,900 -1,211 Descending Northern Cal TRACON
Sat 11:42:02 38.5500 -121.6333 330° Northwest 265 305 3,700 -1,013 Descending Northern Cal TRACON
Sat 11:42:19 38.5556 -121.6372 331° Northwest 263 303 3,600 -538 Descending Oakland Center
Sat 11:43:20 38.6311 -121.6942 330° Northwest 262 302 3,000 -344 Descending Oakland Center
Sat 11:44:21 38.7008 -121.7008 356° North 251 289 2,900 -344 Descending Oakland Center
Sat 11:45:22 38.7525 -121.6942 North 222 255 2,300 -738 Descending Oakland Center
Sat 11:46:23 38.7656 -121.6386 73° East 183 211 1,400 -886 Descending Oakland Center
Sat 11:46:50 38.7667 -121.6167 86° East 140 161 1,000 -621 Descending Northern Cal TRACON
Sat 11:47:50 38.7333 -121.6000 159° South 129 148 500 -500 Descending Northern Cal TRACON

Login

Don't have an account? Register now (free) for customized features, flight alerts, and more!